ON8GE-13 Weather Reports


time (UTC)temp
C
wind
direction
speed
KPH
gust
KPH
rain 1hr
cm
rain 24hr
cm
rain mn
cm
humidity
%
barometer
mb
20260505170103 10 16 11.3 22.5 0.00 0.13 0.05 10 1009.7
20260505165105 10 9 9.7 20.9 0.00 0.13 0.05 10 1009.7
20260505164101 10 7 11.3 19.3 0.00 0.13 0.05 10 1009.7
20260505162100 10 252 8.0 16.1 0.00 0.13 0.05 10 1009.7
20260505160104 10 2 9.7 17.7 0.00 0.13 0.05 10 1009.8
20260505153100 10 17 6.4 14.5 0.00 0.13 0.05 10 1009.8
20260505152102 10 5 8.0 17.7 0.00 0.13 0.05 10 1009.8
20260505124100 10 5 8.0 14.5 0.00 0.23 0.05 10 1010.5
20260505123059 10 9 8.0 16.1 0.00 0.23 0.05 10 1010.5
20260505121056 10 7 8.0 16.1 0.00 0.23 0.05 10 1010.6
20260505120058 10 4 9.7 19.3 0.00 0.23 0.05 10 1010.6
20260505113059 10 354 8.0 16.1 0.00 0.23 0.05 10 1010.8
20260505112059 10 8 8.0 16.1 0.00 0.23 0.05 10 1010.8
20260505111100 10 15 8.0 16.1 0.00 0.23 0.05 10 1010.9
20260505102058 10 1 9.7 16.1 0.00 0.23 0.05 10 1011.0
20260505101102 10 1 9.7 16.1 0.00 0.23 0.05 10 1011.0
20260505100057 10 1 8.0 16.1 0.00 0.23 0.05 10 1011.0
20260505095059 10 353 8.0 17.7 0.00 0.23 0.05 10 1011.0
20260505094100 10 1 8.0 17.7 0.00 0.23 0.05 10 1011.0
20260505092059 10 9 8.0 17.7 0.03 0.23 0.05 10 1011.1
20260505090057 10 4 8.0 16.1 0.03 0.23 0.05 10 1011.1
20260505085057 10 359 8.0 16.1 0.03 0.23 0.05 10 1011.1
20260505083058 10 354 8.0 16.1 0.03 0.23 0.05 10 1011.2
20260505082058 10 354 8.0 17.7 0.00 0.20 0.03 10 1011.2
20260505080057 10 358 6.4 11.3 0.00 0.20 0.03 10 1011.3
20260505075057 10 4 8.0 14.5 0.00 0.20 0.03 10 1011.2
20260505074059 10 1 8.0 17.7 0.00 0.20 0.03 10 1011.3
20260505073058 10 357 8.0 17.7 0.00 0.20 0.03 10 1011.2
20260505072057 10 346 6.4 17.7 0.00 0.20 0.03 10 1011.3
20260505070052 10 351 6.4 12.9 0.00 0.20 0.03 10 1011.2
20260505064054 10 349 6.4 14.5 0.00 0.20 0.03 10 1011.3
20260505062054 10 345 6.4 14.5 0.00 0.20 0.03 10 1011.3
20260505061055 10 354 8.0 19.3 0.00 0.20 0.03 10 1011.3
20260505060059 10 346 8.0 16.1 0.00 0.20 0.03 10 1011.4
20260505055056 10 341 4.8 14.5 0.00 0.20 0.03 10 1011.4
20260505054058 11 329 8.0 17.7 0.00 0.20 0.03 10 1011.3
20260505052054 11 340 6.4 14.5 0.00 0.20 0.03 10 1011.2
20260505051058 11 331 6.4 14.5 0.00 0.20 0.03 10 1011.2
20260505041056 11 220 6.4 16.1 0.00 0.20 0.03 10 1011.3
20260505035058 11 331 6.4 14.5 0.00 0.20 0.03 10 1011.4
20260505031057 12 301 3.2 8.0 0.00 0.20 0.03 10 1011.6
20260505030054 12 322 3.2 8.0 0.00 0.23 0.03 10 1011.6
20260505025056 12 299 3.2 11.3 0.00 0.23 0.03 10 1011.6
20260505024059 12 297 3.2 9.7 0.00 0.23 0.03 10 1011.7
20260505022053 12 317 4.8 11.3 0.00 0.23 0.03 10 1011.7
20260505021055 12 328 4.8 11.3 0.00 0.23 0.03 10 1011.6
20260505020059 12 313 4.8 12.9 0.00 0.23 0.03 10 1011.6
20260505014056 12 329 4.8 9.7 0.00 0.23 0.03 10 1011.7
20260505013054 12 319 4.8 11.3 0.00 0.23 0.03 10 1011.8
20260505012056 12 322 4.8 9.7 0.03 0.23 0.03 10 1011.8
20260505011056 12 193 4.8 12.9 0.03 0.23 0.03 10 1011.9
20260505010057 12 320 6.4 12.9 0.03 0.23 0.03 10 1011.9
20260505005100 12 319 4.8 11.3 0.03 0.23 0.03 10 1011.9
20260505004056 12 313 4.8 9.7 0.03 0.23 0.03 10 1012.0
20260505003057 12 316 4.8 12.9 0.03 0.23 0.03 10 1012.1
20260505002055 12 310 4.8 11.3 0.03 0.23 0.03 10 1012.2
20260505001058 12 312 3.2 9.7 0.00 0.20 0.00 10 1012.2
20260505000100 12 306 4.8 9.7 0.00 0.20 0.00 10 1012.2
20260504235108 12 318 4.8 9.7 0.00 0.20 0.00 10 1012.4
20260504234106 12 287 3.2 8.0 0.00 0.20 0.00 10 1012.4
20260504233107 12 318 3.2 9.7 0.00 0.20 0.00 10 1012.5
20260504232104 12 314 4.8 9.7 0.00 0.20 0.00 10 1012.5
20260504224106 12 332 4.8 9.7 0.00 0.20 0.00 10 1012.8
20260504223107 12 322 4.8 14.5 0.00 0.20 0.00 10 1012.9
20260504222107 12 317 3.2 6.4 0.00 0.23 0.00 10 1012.9
20260504215108 12 352 1.6 4.8 0.00 0.23 0.23 10 1013.0
20260504214113 12 316 1.6 3.2 0.00 0.25 0.23 10 1013.1
20260504213111 13 317 1.6 4.8 0.00 0.28 0.23 10 1013.2
20260504211112 13 331 1.6 4.8 0.00 0.33 0.23 10 1013.3
20260504204111 13 339 1.6 3.2 0.00 0.38 0.23 10 1013.5
20260504203115 13 349 1.6 4.8 0.00 0.41 0.23 10 1013.5
20260504202126 13 3 1.6 3.2 0.00 0.43 0.23 10 1013.5
20260504201118 13 340 1.6 3.2 0.00 0.43 0.23 10 1013.4
20260504200114 13 27 0.0 1.6 0.00 0.43 0.23 10 1013.3
20260504195111 13 136 0.0 0.0 0.03 0.43 0.23 10 1013.2
20260504194111 13 204 1.6 4.8 0.03 0.43 0.23 10 1013.1
20260504193110 13 266 1.6 3.2 0.05 0.43 0.23 10 1013.0
20260504192111 13 311 1.6 4.8 0.05 0.43 0.23 10 1013.0
20260504191113 13 294 1.6 3.2 0.05 0.43 0.23 10 1012.9
20260504190112 13 333 1.6 3.2 0.05 0.43 0.23 99 1012.9
20260504185113 13 105 1.6 4.8 0.08 0.43 0.23 99 1012.9
20260504184108 13 134 1.6 3.2 0.05 0.43 0.20 98 1012.8
20260504182104 13 128 1.6 4.8 0.05 0.46 0.18 98 1012.7
20260504181109 13 137 1.6 4.8 0.05 0.53 0.18 97 1012.7
20260504180107 14 39 3.2 8.0 0.03 0.71 0.15 95 1012.8
20260504175105 14 146 4.8 9.7 0.03 0.71 0.15 94 1012.8
20260504174104 15 151 3.2 6.4 0.00 0.76 0.15 95 1012.8
20260504173107 15 168 3.2 6.4 0.00 0.79 0.15 95 1012.7
20260504172101 15 169 3.2 4.8 0.00 0.79 0.15 94 1012.7
20260504171107 15 191 1.6 4.8 0.00 0.79 0.15 93 1012.7